Location: Croisilles
(50.1998°N, 2.8793°E)
Time: 12:58:07
(UTC+00:00)

CSL-04 Rocket - Pass Details

Date: 21 January 2021
Orbit: 806 x 860 km, 98.9° (Epoch: 26 February)

Event Time Altitude Azimuth Distance (km) Brightness Sun altitude
Rises 18:15:25 0° 149° (SSE) 3,358 6.6 -17.5°
Reaches altitude 10° 18:17:46 10° 145° (SE) 2,436 5.8 -17.8°
Maximum altitude 18:23:03 57° 68° (ENE) 990 3.7 -18.7°
Drops below altitude 10° 18:28:26 10° 351° (N) 2,486 6.1 -19.5°
Sets 18:30:51 0° 348° (NNW) 3,433 6.9 -19.9°
